Temperature
25 24 23 23 22 21 20 20 20 20 19 19 19 19 19 19 19 19 19 19 19 19 19 19 19 19 19 19 19 19 18 18 18 18 18 18 18 18 18 17 17 17 17
25 24 23 23 22 21 20 20 20 20 19 19 19 19 19 19 19 19 19 19 19 19 19 19 19 19 19 19 19 18 18 18 18 18 18 18 18 18 18 18 17 17 17
25 24 23 23 22 21 21 20 20 20 20 19 19 19 19 19 19 19 19 19 19 19 19 19 19 18 18 19 19 19 19 19 19 18 18 18 18 17 18 17 17 17 17
26 25 24 23 22 22 21 20 20 20 20 19 19 19 19 19 19 19 19 19 19 19 19 19 19 18 18 19 19 19 18 18 18 19 19 19 18 18 17 17 17 17 17
27 25 24 23 23 22 21 21 20 20 20 19 19 19 19 19 19 19 19 19 19 18 18 18 18 18 18 18 18 18 18 18 18 18 19 18 18 18 18 17 17 17 17
27 26 25 24 23 22 22 21 20 20 20 20 19 19 19 19 19 19 19 19 19 18 18 18 18 18 18 18 18 18 18 18 18 19 19 18 18 18 18 18 17 17 17
27 26 25 24 23 22 22 21 21 20 20 20 19 19 19 19 19 19 19 19 19 19 19 19 19 18 18 18 18 18 18 18 18 18 18 18 18 18 18 18 17 17 17
28 26 25 24 23 23 22 21 21 21 20 20 20 19 19 19 19 19 19 19 19 19 19 19 19 18 18 18 18 18 18 18 18 18 18 18 18 18 18 18 17 17 17
28 27 26 25 24 23 22 22 21 21 20 20 19 19 19 19 19 19 19 19 19 19 19 18 18 18 18 18 18 18 18 18 18 18 18 18 18 18 18 18 18 17 17
29 27 26 25 25 24 23 22 21 21 20 20 20 19 19 19 19 19 19 19 19 19 19 18 18 18 18 18 18 18 18 18 18 18 18 18 18 18 18 18 18 17 17
29 28 27 26 25 24 23 22 21 21 20 20 20 19 19 19 19 19 19 19 19 19 18 18 18 18 18 18 18 18 18 18 18 18 18 18 18 18 18 18 17 17 17
29 28 27 26 25 24 23 22 21 21 20 20 20 19 19 19 19 19 19 19 19 19 18 18 18 18 18 18 18 18 18 18 18 18 17 17 18 18 18 17 17 17 17
29 28 27 26 25 24 23 22 21 21 20 20 19 19 19 19 19 19 19 18 18 18 18 18 18 18 18 18 18 18 18 18 17 17 17 17 17 17 17 17 17 17 16
28 27 27 25 25 24 23 22 22 21 20 20 19 19 19 19 19 18 18 18 18 18 18 18 18 18 18 18 18 18 18 18 17 17 17 17 17 17 17 17 17 17 16
27 27 26 25 24 23 23 22 21 21 21 20 20 19 19 19 18 18 18 18 18 18 18 18 18 18 18 18 18 18 17 17 17 17 17 17 17 17 17 17 16 16 16
27 26 25 24 24 23 22 22 21 21 21 20 20 19 19 19 18 18 18 18 18 18 18 18 18 18 18 18 18 18 17 17 17 17 17 17 17 17 17 16 16 16 16
26 25 24 24 23 22 22 22 21 21 20 20 19 19 19 19 18 18 18 18 18 18 18 18 18 17 18 18 17 17 17 17 17 17 16 16 16 16 16 16 16 16 16
25 24 24 23 23 22 22 22 21 21 20 20 19 19 19 19 18 18 18 18 18 18 18 18 17 17 17 17 17 17 17 17 17 17 16 16 16 16 16 16 16 16 16
24 24 23 23 22 22 22 21 21 20 20 19 19 19 19 18 18 18 18 18 18 18 17 17 17 17 17 17 17 17 17 17 17 16 16 16 16 16 16 16 16 16 16
23 23 22 22 22 21 21 21 20 20 20 20 19 19 19 18 18 18 18 18 18 17 17 17 17 17 17 17 17 17 17 16 16 16 16 16 16 16 16 16 16 16 15
22 22 22 21 21 21 21 20 20 20 20 19 19 19 18 18 18 18 18 18 17 17 17 17 17 17 17 17 17 17 16 16 16 16 16 16 16 16 16 16 15 15 15
22 21 21 20 20 20 20 20 20 19 19 19 19 19 18 18 18 18 17 17 17 17 17 17 17 17 17 17 17 17 16 16 16 16 16 15 16 15 15 15 15 15 15
21 20 20 20 19 19 19 19 19 19 19 19 18 18 18 18 18 17 17 17 17 17 16 16 16 16 16 16 17 16 16 16 16 16 15 15 15 15 15 15 15 14 14
20 20 19 19 19 19 19 19 19 18 18 18 18 18 18 17 17 17 17 17 16 16 16 16 16 16 16 16 16 16 16 16 15 15 15 15 15 15 15 15 14 14 14
19 19 19 18 18 18 18 18 18 18 18 17 17 17 17 17 17 17 17 16 16 16 16 16 16 16 16 16 16 16 16 16 15 15 15 14 14 14 14 14 14 14 14
18 18 18 18 18 18 18 18 18 17 17 17 17 17 17 17 16 16 16 16 16 16 16 16 16 16 16 16 16 16 15 15 15 15 14 14 14 14 14 14 14 14 13
Wind_Speed
11 10 9 10 9 8 7 6 5 5 3 3 2 2 2 2 3 3 4 4 4 4 3 2 3 2 3 2 3 2 2 2 2 2 2 2 1 2 2 3 3 3 4
12 10 9 9 9 8 7 6 5 5 3 3 1 1 1 1 3 3 4 3 4 3 4 3 2 2 3 2 2 2 1 1 2 2 2 1 0 0 2 2 3 3 4
13 12 10 9 9 9 8 7 6 5 4 3 2 2 2 1 2 4 3 2 3 3 3 4 2 2 3 3 2 2 2 1 0 1 1 1 1 0 1 1 2 2 2
14 13 12 10 9 9 9 7 7 5 5 3 2 2 2 2 2 2 3 3 2 2 3 3 2 1 2 3 2 2 1 2 1 0 1 1 3 2 1 0 2 2 2
14 14 13 11 10 10 9 8 7 6 5 3 3 2 2 2 2 3 4 3 2 2 3 3 1 1 1 2 1 2 1 1 1 0 1 1 1 2 2 1 1 1 1
14 14 13 11 10 10 10 10 9 7 6 4 3 2 2 2 2 2 3 2 2 2 3 3 2 1 0 1 2 1 2 1 0 1 0 1 1 1 1 2 2 2 1
13 13 13 13 11 11 10 10 10 8 7 6 4 3 3 2 2 1 2 1 2 2 2 3 2 1 1 1 2 2 1 1 1 0 1 1 0 0 1 2 1 1 1
14 14 13 13 12 11 10 10 11 9 8 7 5 4 4 2 2 2 1 1 1 2 3 3 3 2 1 1 1 1 1 1 1 0 0 1 1 0 1 1 2 1 1
14 14 14 14 14 13 11 11 11 10 8 8 6 5 4 3 2 2 2 1 1 2 4 3 2 2 1 1 1 1 1 1 0 0 0 1 1 1 1 1 1 1 1
13 14 14 13 12 12 11 11 11 10 9 8 7 7 5 4 3 3 2 1 1 2 3 2 2 2 1 1 0 0 1 1 0 0 0 1 1 1 1 0 0 0 1
11 12 12 12 12 11 12 11 11 10 9 8 7 5 6 5 4 3 3 2 2 2 2 2 2 2 1 1 0 0 1 1 0 1 0 0 1 2 2 1 1 1 2
10 11 12 12 11 11 11 10 10 11 10 8 7 6 6 5 5 4 3 3 2 2 2 2 2 2 2 1 1 1 1 1 1 1 1 0 0 1 1 1 1 0 1
8 10 11 11 10 10 9 10 10 10 10 9 9 7 6 5 4 4 3 3 3 2 2 2 2 1 2 2 1 1 1 1 1 1 1 1 1 1 1 1 0 1 1
6 8 9 9 9 8 8 8 9 9 9 8 8 7 6 5 5 4 4 4 3 3 2 2 2 1 1 1 1 1 1 1 1 1 1 0 0 0 0 0 0 0 0
6 6 8 8 8 9 8 8 8 7 7 8 8 7 6 5 5 4 4 4 3 4 3 3 2 2 2 1 1 2 2 2 2 2 1 1 2 2 1 0 1 0 1
6 6 7 7 7 8 8 8 8 8 7 7 7 6 6 6 5 5 4 4 4 3 3 3 2 2 1 3 3 1 1 1 2 2 1 2 2 2 2 1 1 0 1
6 5 6 6 6 6 7 8 8 8 8 7 7 7 7 6 6 6 5 5 4 4 3 3 2 2 3 4 4 2 0 0 0 0 1 1 1 3 2 1 2 2 3
5 5 5 6 6 6 7 7 8 8 8 8 7 7 7 6 6 5 5 5 4 3 3 3 3 2 3 3 3 1 1 0 1 1 1 1 0 0 1 1 1 2 2
4 4 4 5 5 6 6 6 8 8 8 9 8 8 7 7 6 5 5 5 4 4 4 3 3 3 2 3 3 2 1 1 2 2 1 1 1 0 0 1 2 2 3
5 4 4 4 5 5 5 6 7 8 8 8 8 8 8 7 7 6 5 4 4 4 4 4 4 4 3 4 4 3 2 2 2 2 1 2 1 1 1 1 2 3 3
5 4 3 3 3 4 5 5 6 6 6 6 7 8 8 8 7 6 5 5 4 4 4 4 4 4 5 6 6 5 2 2 3 2 2 1 3 3 3 3 3 4 4
4 4 3 3 3 3 4 5 4 4 4 5 6 8 8 8 8 6 6 6 6 5 5 4 4 4 4 5 6 6 5 4 2 2 1 1 4 4 5 4 4 4 3
4 3 3 3 3 2 3 4 3 4 4 5 5 6 6 6 5 6 6 6 5 5 4 4 4 4 3 3 6 6 6 4 2 2 2 0 4 4 4 6 5 3 2
3 3 3 2 2 2 2 3 3 3 4 5 5 5 5 5 5 4 5 5 5 5 4 4 4 3 3 2 2 3 3 3 3 3 2 3 5 5 4 2 2 3 3
2 2 2 2 2 2 3 3 4 4 4 5 4 5 5 5 4 4 2 4 2 3 3 3 2 3 3 3 4 4 3 3 3 2 2 2 2 3 3 3 2 3 2
2 2 2 2 2 2 2 3 3 4 5 4 4 4 5 5 5 4 3 2 2 4 4 4 3 2 3 4 5 4 3 3 3 3 3 3 2 3 3 3 3 3 3
Wind_Direction
146 143 144 138 133 127 124 121 113 110 117 111 114 112 115 112 112 116 120 129 128 124 132 101 126 127 118 124 122 136 155 144 122 102 88 103 129 147 140 138 134 133 136
150 149 153 148 142 137 135 129 128 127 129 121 121 121 112 118 113 101 105 121 123 130 136 119 133 118 127 131 135 150 138 143 146 152 140 123 101 21 131 146 150 141 135
158 158 163 159 153 149 150 149 137 137 133 129 135 103 98 68 92 107 114 113 121 128 107 118 126 127 145 145 164 162 158 162 139 83 135 142 143 114 95 114 114 122 124
164 164 167 168 163 157 154 138 138 138 136 139 132 134 125 102 91 107 116 116 115 112 102 113 116 111 113 139 184 162 169 154 178 150 65 123 136 153 145 175 122 136 140
167 166 168 168 167 163 157 149 142 138 136 145 142 138 107 116 110 104 117 125 124 126 121 123 124 112 125 143 124 121 142 125 159 173 124 101 112 143 162 167 155 139 168
166 165 165 163 167 165 161 157 148 146 150 156 151 152 135 93 91 88 103 142 145 150 144 139 126 121 140 129 131 143 140 115 57 7 22 118 132 165 157 169 173 164 168
165 166 165 164 167 168 166 159 151 154 160 165 164 163 150 135 137 155 143 184 147 146 150 125 127 129 130 137 148 155 153 150 163 189 312 350 45 47 126 149 156 149 157
167 168 167 166 169 170 166 161 156 161 167 171 169 167 158 178 176 185 165 170 135 122 133 129 131 134 145 132 127 138 173 160 177 254 311 312 309 314 143 160 166 156 160
169 170 170 173 174 173 169 165 159 162 169 174 169 171 178 198 177 155 195 161 130 147 120 126 127 120 96 38 37 99 57 88 171 242 204 258 291 287 266 209 192 172 172
168 170 171 173 173 171 165 165 162 164 168 172 177 179 180 184 178 171 168 165 132 100 126 132 137 140 139 151 276 145 118 122 254 271 317 317 317 312 305 288 216 144 154
168 168 167 168 166 166 168 168 163 164 170 174 176 171 169 179 181 175 166 170 161 142 144 152 158 159 150 139 102 188 170 169 217 262 150 226 351 341 339 347 39 81 118
168 163 160 162 165 168 168 166 167 170 172 171 168 170 168 174 179 172 160 159 160 151 154 169 172 178 154 147 169 264 85 98 90 42 17 321 13 27 340 358 39 78 161
159 156 155 159 161 162 162 166 169 170 170 170 171 167 169 172 176 167 160 160 156 158 160 160 162 170 152 158 151 104 72 67 74 80 37 11 357 21 22 39 308 240 168
159 160 154 154 155 156 157 161 168 169 167 164 166 165 170 172 172 167 160 160 152 157 162 155 158 157 143 152 152 153 152 132 106 105 109 112 32 72 261 194 283 322 241
171 158 152 150 154 156 155 158 163 163 164 161 164 164 166 165 160 158 163 159 158 168 157 157 161 159 171 184 158 176 173 170 164 158 141 117 93 81 52 51 47 332 282
168 154 146 145 150 154 160 163 163 162 158 160 163 161 162 161 164 162 162 159 163 169 158 165 165 179 180 101 104 109 171 168 180 178 161 160 139 134 125 83 67 147 249
153 156 150 150 152 157 157 161 164 162 160 161 165 164 163 162 167 173 168 171 172 174 169 169 164 141 97 91 96 89 146 159 158 168 197 237 165 152 158 187 217 231 244
147 144 154 155 161 163 165 166 169 167 165 167 170 166 166 167 170 172 171 172 170 178 180 182 169 159 141 124 116 93 192 246 262 250 234 250 52 281 155 206 211 244 256
128 134 150 157 163 168 167 165 172 171 171 174 174 172 172 168 173 175 177 177 175 181 192 181 175 169 161 161 159 163 206 235 258 259 231 146 153 321 111 241 261 266 262
115 126 143 148 152 163 166 172 175 176 178 177 175 171 170 172 178 179 182 182 181 191 193 183 184 180 178 175 178 186 225 237 248 246 181 119 96 114 120 258 264 275 283
119 123 133 138 146 156 156 175 179 176 179 175 171 170 173 178 179 178 180 182 189 195 197 193 190 184 184 180 185 189 222 251 251 237 214 183 162 176 209 237 256 263 282
122 127 128 132 140 156 161 173 179 171 169 170 172 174 177 189 185 177 184 188 193 196 200 197 198 190 182 173 182 190 214 252 283 290 313 189 179 204 220 231 261 278 290
128 127 122 122 127 143 157 167 165 163 169 166 171 174 177 178 173 178 184 189 194 202 205 199 202 200 189 172 175 190 212 235 252 311 349 304 204 221 230 235 252 266 272
122 113 120 136 142 153 165 160 159 168 175 172 170 171 171 174 176 186 183 186 192 200 200 200 204 192 181 175 175 197 212 222 233 260 266 229 217 236 255 248 231 232 249
125 126 138 151 158 164 172 172 171 173 176 167 164 169 171 167 168 172 178 183 177 187 196 203 200 190 185 184 173 183 197 214 220 222 223 225 219 231 233 227 227 232 234
145 141 157 173 169 183 183 168 170 170 172 173 179 185 180 174 177 174 170 88 140 147 143 137 141 153 140 147 148 161 186 210 202 205 227 230 236 248 254 253 245 231 235
Height
1509 1512 1514 1516 1517 1518 1519 1520 1521 1521 1522 1522 1523 1524 1524 1525 1526 1526 1527 1528 1528 1529 1530 1532 1533 1534 1535 1536 1537 1538 1539 1540 1540 1541 1542 1543 1543 1543 1544 1544 1544 1545 1545
1508 1511 1514 1516 1517 1518 1519 1520 1521 1522 1523 1523 1524 1525 1526 1526 1527 1527 1527 1528 1529 1530 1531 1531 1533 1534 1535 1535 1536 1537 1538 1540 1540 1541 1541 1542 1544 1543 1544 1544 1544 1544 1545
1506 1510 1513 1515 1517 1518 1519 1520 1521 1522 1523 1524 1525 1526 1526 1527 1528 1528 1528 1529 1530 1530 1531 1532 1533 1534 1534 1535 1536 1537 1538 1539 1540 1541 1542 1542 1542 1543 1544 1544 1544 1544 1544
1503 1508 1511 1514 1516 1517 1519 1520 1521 1522 1523 1524 1525 1526 1527 1528 1529 1529 1529 1530 1530 1531 1532 1532 1533 1534 1534 1535 1536 1537 1538 1539 1539 1540 1541 1541 1542 1542 1543 1544 1544 1544 1544
1500 1505 1509 1512 1515 1517 1518 1520 1521 1522 1523 1524 1526 1527 1528 1529 1530 1530 1530 1530 1531 1531 1532 1533 1533 1534 1535 1535 1536 1537 1538 1538 1539 1539 1540 1540 1541 1542 1542 1543 1543 1544 1544
1497 1502 1507 1510 1513 1516 1518 1519 1520 1521 1523 1524 1526 1527 1528 1529 1530 1530 1530 1531 1532 1532 1532 1533 1533 1534 1534 1535 1535 1536 1537 1537 1538 1539 1539 1540 1540 1541 1541 1542 1542 1542 1543
1495 1500 1504 1508 1511 1514 1516 1518 1519 1521 1522 1524 1526 1527 1528 1529 1530 1531 1531 1532 1532 1533 1533 1533 1533 1534 1534 1535 1535 1536 1536 1537 1537 1538 1539 1539 1539 1540 1540 1541 1541 1541 1542
1492 1497 1501 1505 1509 1512 1515 1517 1518 1520 1522 1523 1525 1527 1528 1529 1530 1531 1531 1532 1533 1533 1533 1533 1533 1534 1534 1535 1535 1536 1536 1537 1537 1537 1538 1538 1539 1539 1540 1540 1541 1540 1541
1489 1494 1499 1503 1506 1510 1513 1515 1516 1518 1520 1522 1524 1526 1528 1529 1530 1531 1532 1532 1533 1533 1533 1533 1533 1533 1534 1535 1535 1536 1536 1536 1537 1537 1537 1538 1538 1538 1539 1539 1540 1541 1540
1487 1491 1496 1500 1504 1507 1510 1513 1515 1517 1519 1521 1523 1525 1527 1528 1529 1530 1531 1532 1532 1533 1533 1533 1533 1533 1534 1534 1535 1535 1536 1536 1536 1536 1537 1537 1537 1537 1538 1538 1538 1539 1539
1484 1489 1494 1498 1502 1505 1508 1511 1513 1515 1518 1520 1522 1524 1525 1527 1528 1529 1530 1531 1532 1532 1532 1533 1533 1533 1533 1534 1534 1535 1535 1535 1536 1536 1536 1536 1536 1536 1536 1537 1537 1537 1537
1483 1486 1491 1496 1500 1503 1506 1509 1511 1514 1516 1518 1520 1522 1524 1525 1527 1528 1529 1530 1530 1531 1531 1532 1532 1533 1533 1533 1534 1534 1535 1535 1534 1535 1535 1535 1535 1535 1535 1535 1535 1536 1536
1482 1485 1490 1494 1498 1501 1504 1507 1510 1512 1514 1517 1519 1520 1522 1524 1525 1526 1528 1528 1529 1530 1530 1531 1531 1532 1532 1532 1533 1533 1533 1534 1534 1534 1534 1533 1534 1534 1534 1533 1534 1534 1535
1482 1484 1488 1492 1496 1499 1502 1505 1508 1510 1513 1515 1516 1518 1520 1522 1523 1525 1526 1527 1528 1529 1529 1530 1530 1531 1531 1531 1532 1532 1532 1532 1533 1533 1533 1533 1533 1532 1533 1533 1533 1533 1533
1482 1485 1487 1491 1494 1498 1500 1503 1506 1508 1511 1512 1514 1516 1518 1520 1522 1523 1524 1526 1527 1528 1528 1529 1529 1530 1530 1531 1531 1531 1531 1531 1532 1532 1532 1532 1532 1532 1532 1532 1532 1532 1532
1482 1484 1487 1489 1492 1495 1498 1501 1504 1506 1508 1510 1512 1515 1517 1518 1520 1521 1523 1524 1525 1526 1527 1528 1528 1529 1529 1530 1530 1530 1530 1530 1530 1530 1530 1531 1531 1531 1531 1531 1531 1531 1531
1480 1483 1485 1488 1490 1493 1496 1498 1501 1504 1506 1508 1510 1513 1514 1516 1517 1519 1521 1522 1523 1524 1525 1526 1527 1527 1528 1528 1529 1528 1529 1529 1529 1529 1529 1530 1530 1530 1530 1530 1529 1530 1530
1479 1482 1484 1487 1489 1492 1494 1497 1499 1502 1504 1506 1508 1510 1512 1514 1515 1517 1519 1520 1521 1523 1523 1524 1525 1525 1526 1527 1527 1527 1527 1527 1528 1528 1528 1528 1528 1528 1528 1528 1527 1527 1527
1478 1481 1483 1485 1487 1490 1492 1494 1497 1499 1501 1503 1505 1507 1509 1511 1513 1515 1516 1518 1519 1520 1521 1522 1523 1523 1524 1525 1525 1525 1525 1525 1526 1526 1527 1527 1526 1526 1526 1526 1525 1525 1525
1478 1480 1482 1484 1486 1488 1490 1492 1493 1496 1498 1500 1502 1504 1507 1509 1510 1512 1514 1516 1517 1518 1519 1520 1521 1521 1522 1522 1523 1523 1523 1523 1524 1524 1524 1524 1524 1524 1524 1524 1523 1523 1523
1477 1479 1481 1483 1484 1486 1487 1489 1490 1492 1495 1498 1500 1502 1504 1506 1508 1510 1512 1514 1515 1516 1518 1518 1519 1519 1520 1520 1521 1521 1521 1521 1522 1522 1522 1522 1522 1522 1522 1522 1521 1521 1521
1477 1479 1480 1482 1483 1484 1485 1487 1488 1490 1493 1495 1497 1499 1501 1504 1506 1508 1510 1511 1513 1513 1514 1516 1516 1517 1517 1518 1518 1518 1519 1519 1519 1520 1520 1520 1520 1520 1519 1519 1519 1518 1518
1477 1479 1480 1481 1482 1483 1484 1485 1487 1489 1491 1493 1495 1496 1499 1500 1503 1505 1507 1509 1510 1511 1512 1513 1514 1514 1515 1515 1515 1515 1516 1516 1517 1517 1517 1517 1517 1517 1516 1516 1516 1515 1515
1477 1478 1479 1480 1481 1482 1483 1484 1485 1486 1488 1490 1492 1494 1496 1498 1500 1502 1503 1505 1507 1508 1509 1510 1511 1512 1512 1512 1512 1512 1513 1513 1513 1514 1514 1515 1515 1514 1514 1513 1513 1512 1512
1477 1477 1478 1479 1480 1481 1481 1482 1483 1484 1486 1488 1489 1491 1493 1495 1497 1499 1501 1502 1503 1505 1506 1507 1508 1508 1508 1509 1510 1510 1510 1510 1511 1511 1511 1511 1511 1511 1510 1510 1510 1509 1509
1475 1476 1477 1478 1478 1479 1480 1480 1481 1482 1484 1485 1487 1489 1491 1493 1494 1496 1498 1499 1501 1502 1503 1504 1505 1506 1506 1507 1507 1507 1508 1508 1508 1508 1508 1508 1508 1508 1507 1507 1506 1506 1505